Retour au catalogue

STARLINK-2746

ActifCommunicationsVLEO
NORAD 48676·PAYLOAD·🇺🇸 United States

Lancé May 26, 2021 depuis Cape Canaveral Space Force Station

Loading…

Prochains Passages (prochaines 24 heures)

TLE

FraisSource: CelesTrak SupGP

Époque: Sep 14, 2026, 21:29 UTC

1 48676C 21044AQ  26257.89562500 -.00011866  00000+0 -38148-3 0  2576
2 48676  53.1584 314.8911 0001017  93.1272 207.2217 15.31716140    10

Suivez STARLINK-2746 en temps réel avec AllMySat

Download on the App Store